When you browse on this site, cookies collect data to enhance your experience and personalize the content and advertising you see.
Visit our Privacy Policy to learn more. By continuing to use the site, you agree to this use of cookies and data.
  • en Suisse
  • Liste des pays
  • À 7 jours
  • Température de l'eau
  • Carte satellitaire
  • Carte météo
  • Widgets météo
  • user-avatar
    Se connecter

    Météo par heure à Plai

    Ce jour, 17 Février, Dimanche

    Heure Température Précipitation Vent Pression Humidité
    00:00 -1°C° 0 mm 1 m/s 689 mmHg 90%
    01:00 -1°C° 0 mm 1 m/s 689 mmHg 89%
    02:00 -1°C° 0 mm 1 m/s 689 mmHg 88%
    03:00 -1°C° 0 mm 1 m/s 689 mmHg 88%
    04:00 -3°C° 0 mm 2 m/s 688 mmHg 88%
    05:00 -3°C° 0 mm 2 m/s 688 mmHg 87%
    06:00 -3°C° 0 mm 2 m/s 688 mmHg 87%
    07:00 -3°C° 0 mm 2 m/s 688 mmHg 86%
    08:00 -3°C° 0 mm 2 m/s 688 mmHg 86%
    09:00 +2°C° 0 mm 1 m/s 688 mmHg 83%
    10:00 +4°C° 0 mm 1 m/s 689 mmHg 80%
    11:00 +6°C° 0 mm 1 m/s 689 mmHg 78%
    12:00 +7°C° 0 mm 1 m/s 689 mmHg 77%
    13:00 +8°C° 0 mm 1 m/s 689 mmHg 76%
    14:00 +9°C° 0 mm 1 m/s 689 mmHg 75%
    15:00 +7°C° 0 mm 1 m/s 688 mmHg 80%
    16:00 +6°C° 0 mm 1 m/s 688 mmHg 84%
    17:00 +5°C° 0 mm 1 m/s 688 mmHg 89%
    18:00 +3°C° 0 mm 1 m/s 687 mmHg 88%
    19:00 +2°C° 0 mm 1 m/s 687 mmHg 87%
    20:00 +1°C° 0 mm 1 m/s 687 mmHg 85%
    21:00 0°C° 0 mm 1 m/s 687 mmHg 83%
    22:00 0°C° 0 mm 1 m/s 687 mmHg 80%
    23:00 0°C° 0 mm 1 m/s 687 mmHg 77%

    Demain, 18 Février, Lundi

    Heure Température Précipitation Vent Pression Humidité
    00:00 0°C° 0 mm 1 m/s 687 mmHg 76%
    01:00 0°C° 0 mm 1 m/s 687 mmHg 75%
    02:00 0°C° 0 mm 1 m/s 687 mmHg 74%
    03:00 0°C° 0 mm 1 m/s 687 mmHg 74%
    04:00 0°C° 0 mm 1 m/s 687 mmHg 73%
    05:00 0°C° 0 mm 1 m/s 687 mmHg 73%
    06:00 0°C° 0 mm 1 m/s 687 mmHg 72%
    07:00 0°C° 0 mm 1 m/s 687 mmHg 71%
    08:00 0°C° 0 mm 1 m/s 687 mmHg 70%
    09:00 +3°C° 0 mm 1 m/s 687 mmHg 66%
    10:00 +4°C° 0 mm 0 m/s 688 mmHg 62%
    11:00 +6°C° 0 mm 0 m/s 688 mmHg 59%
    12:00 +7°C° 0 mm 0 m/s 688 mmHg 59%
    13:00 +7°C° 0 mm 0 m/s 688 mmHg 60%
    14:00 +8°C° 0 mm 0 m/s 688 mmHg 60%
    15:00 +6°C° 0 mm 0 m/s 687 mmHg 68%
    16:00 +5°C° 0 mm 0 m/s 687 mmHg 75%
    17:00 +3°C° 0 mm 0 m/s 686 mmHg 83%
    18:00 +2°C° 0 mm 0 m/s 686 mmHg 84%
    19:00 +1°C° 0 mm 0 m/s 686 mmHg 86%
    20:00 0°C° 0 mm 0 m/s 686 mmHg 87%
    21:00 +1°C° 0 mm 1 m/s 686 mmHg 87%
    22:00 +1°C° 0 mm 1 m/s 686 mmHg 86%
    23:00 +1°C° 0 mm 1 m/s 686 mmHg 85%

    Après-demain, 19 Février, Mardi

    Heure Température Précipitation Vent Pression Humidité
    00:00 +1°C° 0 mm 1 m/s 686 mmHg 84%
    01:00 +1°C° 0 mm 1 m/s 686 mmHg 83%
    02:00 +1°C° 0 mm 1 m/s 686 mmHg 81%
    03:00 +1°C° 0 mm 1 m/s 686 mmHg 81%
    04:00 +1°C° 0 mm 1 m/s 686 mmHg 80%
    05:00 +1°C° 0 mm 1 m/s 686 mmHg 79%
    06:00 +1°C° 0 mm 1 m/s 686 mmHg 78%
    07:00 +1°C° 0 mm 1 m/s 686 mmHg 77%
    08:00 +1°C° 0 mm 1 m/s 686 mmHg 76%
    09:00 +3°C° 0 mm 1 m/s 686 mmHg 71%
    10:00 +5°C° 0 mm 1 m/s 686 mmHg 66%
    11:00 +7°C° 0 mm 1 m/s 687 mmHg 62%
    12:00 +8°C° 0 mm 1 m/s 686 mmHg 60%
    13:00 +8°C° 0 mm 1 m/s 686 mmHg 58%
    14:00 +9°C° 0 mm 1 m/s 686 mmHg 56%
    15:00 +8°C° 0 mm 1 m/s 685 mmHg 63%
    16:00 +6°C° 0 mm 1 m/s 685 mmHg 69%
    17:00 +5°C° 0 mm 1 m/s 684 mmHg 76%
    18:00 +3°C° 0 mm 1 m/s 684 mmHg 78%
    19:00 +2°C° 0 mm 1 m/s 684 mmHg 79%
    20:00 -1°C° 0 mm 2 m/s 684 mmHg 81%
    21:00 -1°C° 0 mm 2 m/s 684 mmHg 79%
    22:00 -2°C° 0 mm 2 m/s 684 mmHg 78%
    23:00 -2°C° 0 mm 2 m/s 684 mmHg 77%

    20 Février, Mercredi

    Heure Température Précipitation Vent Pression Humidité
    00:00 -2°C° 0 mm 2 m/s 684 mmHg 77%
    01:00 -2°C° 0 mm 2 m/s 684 mmHg 78%
    02:00 -2°C° 0 mm 2 m/s 684 mmHg 79%
    03:00 -2°C° 0 mm 2 m/s 683 mmHg 80%
    04:00 -2°C° 0 mm 2 m/s 683 mmHg 82%
    05:00 0°C° 0 mm 1 m/s 683 mmHg 84%
    06:00 0°C° 0 mm 1 m/s 684 mmHg 85%
    07:00 0°C° 0 mm 1 m/s 684 mmHg 85%
    08:00 0°C° 0 mm 1 m/s 684 mmHg 86%
    09:00 +2°C° 0 mm 1 m/s 685 mmHg 80%
    10:00 +4°C° 0 mm 1 m/s 685 mmHg 74%
    11:00 +6°C° 0 mm 1 m/s 686 mmHg 68%
    12:00 +6°C° 0 mm 1 m/s 686 mmHg 67%
    13:00 +7°C° 0 mm 1 m/s 686 mmHg 66%
    14:00 +7°C° 0 mm 1 m/s 686 mmHg 65%
    15:00 +6°C° 0 mm 1 m/s 686 mmHg 72%
    16:00 +5°C° 0 mm 1 m/s 685 mmHg 79%
    17:00 +4°C° 0 mm 1 m/s 685 mmHg 86%
    18:00 +3°C° 0 mm 1 m/s 685 mmHg 89%
    19:00 +2°C° 0 mm 1 m/s 685 mmHg 91%
    20:00 +1°C° 0 mm 1 m/s 685 mmHg 94%
    21:00 0°C° 0 mm 1 m/s 686 mmHg 94%
    22:00 0°C° 0 mm 1 m/s 686 mmHg 94%
    23:00 0°C° 0 mm 1 m/s 686 mmHg 94%

    21 Février, Jeudi

    Heure Température Précipitation Vent Pression Humidité
    00:00 0°C° 0 mm 1 m/s 686 mmHg 94%
    01:00 0°C° 0 mm 1 m/s 686 mmHg 93%
    02:00 0°C° 0 mm 1 m/s 686 mmHg 93%
    03:00 0°C° 0 mm 1 m/s 686 mmHg 92%
    04:00 0°C° 0 mm 1 m/s 686 mmHg 91%
    05:00 0°C° 0 mm 1 m/s 685 mmHg 90%
    06:00 0°C° 0 mm 1 m/s 686 mmHg 89%
    07:00 0°C° 0 mm 1 m/s 686 mmHg 88%
    08:00 +1°C° 0 mm 1 m/s 686 mmHg 87%
    09:00 +2°C° 0 mm 1 m/s 686 mmHg 82%
    10:00 +3°C° 0 mm 1 m/s 687 mmHg 78%
    11:00 +4°C° 0 mm 1 m/s 687 mmHg 73%
    12:00 +4°C° 0 mm 2 m/s 687 mmHg 72%
    13:00 +4°C° 0 mm 2 m/s 687 mmHg 70%
    14:00 +5°C° 0 mm 2 m/s 686 mmHg 69%
    15:00 +4°C° 0 mm 2 m/s 686 mmHg 73%
    16:00 +3°C° 0 mm 2 m/s 686 mmHg 77%
    17:00 +2°C° 0 mm 2 m/s 685 mmHg 81%
    18:00 +2°C° 0 mm 2 m/s 685 mmHg 84%
    19:00 +1°C° 0 mm 2 m/s 685 mmHg 88%
    20:00 -1°C° 0 mm 2 m/s 685 mmHg 91%
    21:00 -1°C° 0.2 mm 2 m/s 685 mmHg 90%
    22:00 +1°C° 0.2 mm 2 m/s 685 mmHg 90%
    23:00 +1°C° 0.2 mm 2 m/s 685 mmHg 89%

    22 Février, Vendredi

    Heure Température Précipitation Vent Pression Humidité
    00:00 +1°C° 0.5 mm 2 m/s 685 mmHg 90%
    01:00 +2°C° 0.5 mm 1 m/s 684 mmHg 90%
    02:00 +2°C° 0.5 mm 1 m/s 684 mmHg 91%
    03:00 +1°C° 0.4 mm 1 m/s 684 mmHg 91%
    04:00 +1°C° 0.4 mm 1 m/s 683 mmHg 92%
    05:00 +1°C° 0.4 mm 1 m/s 683 mmHg 92%
    06:00 +1°C° 0.4 mm 1 m/s 683 mmHg 92%
    07:00 +1°C° 0.4 mm 1 m/s 682 mmHg 92%
    08:00 +1°C° 0.4 mm 1 m/s 682 mmHg 92%
    09:00 +2°C° 0.1 mm 1 m/s 682 mmHg 87%
    10:00 +3°C° 0.1 mm 1 m/s 682 mmHg 82%
    11:00 +5°C° 0.1 mm 1 m/s 683 mmHg 78%
    12:00 +5°C° 0.3 mm 1 m/s 682 mmHg 80%
    13:00 +4°C° 0.3 mm 1 m/s 682 mmHg 81%
    14:00 +4°C° 0.3 mm 1 m/s 682 mmHg 83%
    15:00 +4°C° 0.6 mm 1 m/s 682 mmHg 87%
    16:00 +3°C° 0.6 mm 1 m/s 682 mmHg 91%
    17:00 +3°C° 0.6 mm 1 m/s 682 mmHg 94%
    18:00 -1°C° 1.2 mm 2 m/s 682 mmHg 95%
    19:00 -4°C° 1.2 mm 3 m/s 683 mmHg 96%
    20:00 -5°C° 1.2 mm 4 m/s 683 mmHg 97%
    21:00 -8°C° 0.6 mm 5 m/s 684 mmHg 96%
    22:00 -11°C° 0.6 mm 5 m/s 685 mmHg 96%
    23:00 -12°C° 0.6 mm 5 m/s 685 mmHg 96%
    Voir plus